Regional Weather Roundup
Issued by NWS New Orleans/Baton Rouge, LA

Home | Current Version | Previous Version | Graphics & Text | Print | Product List | Glossary On
Versions: 1 2 3 4 5 6 7 8 9 10 11 12 13 14 15 16 17 18 19 20 21 22 23 24 25 26 27 28 29 30 31 32 33 34 35 36 37 38 39 40 41 42 43 44 45 46 47 48 49 50
452
ASUS44 KLIX 310710
RWRLIX
NEW ORLEANS REGIONAL WEATHER ROUNDUP
NATIONAL WEATHER SERVICE NEW ORLEANS LA
200 AM CDT THU JUL 31 2014

NOTE: "FAIR" INDICATES FEW OR NO CLOUDS BELOW 12,000 FEET WITH NO
      SIGNIFICANT WEATHER AND/OR OBSTRUCTIONS TO VISIBILITY.
      SKY/WX - SKY CONDITION AND SIGNIFICANT WEATHER.
      TMP - AIR TEMPERATURE.     DP    - DEWPOINT TEMPERATURE.
      RH  - RELATIVE HUMIDITY.   PRES  - PRESSURE.
      HI  - HEAT INDEX.          WCI   - WIND CHILL INDEX.

*  THESE STATIONS ARE NOT NWS OR FAA STATIONS AND ARE NOT UNDER
   NWS QUALITY CONTROL.

LAZ038-040-048-061>063-065>067-069-310800-
SOUTHEAST LOUISIANA

CITY           SKY/WX    TMP DP  RH WIND       PRES   REMARKS
N.O. AUDUBON     N/A     78  64  60 MISG        N/A
N.O. INTL ARPT CLEAR     76  60  57 E5        30.01S
N.O. LAKEFRONT CLEAR     80  64  58 E12       30.01F
N.O. DOWNTOWN*   N/A     79  61  53 CALM      30.01S
SLIDELL        CLEAR     67  64  90 CALM      30.01F
BATON ROUGE    PTCLDY    70  64  81 CALM      30.01F
BOOTHVILLE     CLEAR     76  67  73 CALM      30.01F
BELLE CHASSE   CLEAR     69  65  86 CALM      30.00F
BOGALUSA*        N/A     68  63  85 CALM      30.04S
GALLIANO*      NOT AVBL
NEW ROADS*       N/A     72  65  78 E3        30.01F
GONZALES*        N/A     68  68  99 CALM      30.01S
HAMMOND*       PTCLDY    70  63  78 CALM      30.03S
HOUMA*         CLEAR     69  64  85 CALM      30.00F
PORT FOURCHON* SUNNY     81  64  57 E5        30.01F

$$

MSZ070-080>082-310800-
SOUTHERN MISSISSIPPI

CITY           SKY/WX    TMP DP  RH WIND       PRES   REMARKS
MCCOMB         CLOUDY    72  60  66 NE3       30.03F
GULFPORT       CLEAR     72  62  71 CALM      30.00F
BILOXI         CLEAR     69  63  79 NE3       30.01F
PASCAGOULA     CLEAR     63  62  97 CALM      30.01F

$$

COASTAL OBSERVATIONS
LAKE AND NEARSHORE STATIONS

STATION/POSITION TIME  TEMP    WIND        PRES    WAVE
                       AIR SEA DIR/SP/G            HT/PER
                 (UTC) (F)     (DEG/KT/KT) (MB)    (FT/S)
PASCAGOULA       0700   72      20/  5/  6 1015.5
WAVELAND YACHT   0700   77      60/  6/  7 1015.5
GRAND ISLE       0700   81 86  100/  2/  5 1016.5
SOUTHWEST PASS   0700   81 85   50/  5/  6 1016.4
NEW CANAL        0700   80 83   80/  7/ 10 1016.5
SHELL BEACH      0700   80 81   90/  7/  8 1015.8

OFFSHORE STATIONS

STATION/POSITION TIME  TEMP    WIND        PRES    WAVE
                       AIR SEA DIR/SP/G            HT/PER
                 (UTC) (F)     (DEG/KT/KT) (MB)    (FT/S)
64 S DAUPHIN ISL 0605   81 85   30/  6/  8 1015.9

$$




USA.gov is the U.S. government's official web portal to all federal, state and local government web resources and services.